UNITE (44031 NORAD) Tracking and Keplerian Element Data

This shows tracking and keplerian element data for the satellite.

Feedback or suggestion? Click here.




ElementValue
Catalog44031
NameUNITE
Epoch Orbit320
Epoch Day51.83357108
Epoch Year2019
RAAN219.6836
Inclination51.6382
Eccentricity0.0003576
Argument of Perigee70.0745
Mean Anonmoly290.0631
Mean Motion15.54060935
Decay Rate5.693E-05
L11 44031U 98067PX 19051.83357108 .00005693 00000-0 93395-4 0 9999
L22 44031 51.6382 219.6836 0003576 70.0745 290.0631 15.54060935 3202

Live tracking and technical data element details for UNITE (NORAD 44031). UNITE can be tracked NOW for your location showing map with azimuth and elevation plus other details from your city location.

Track the satellite on the map from your city or location and see movement details for azimuth, elevation, latitude, longitude, range, height, and movement on the map or in text.







IsCatalogInMostPopularTable: catalog: 44031, numindb: 7
Update: records affected: 1



GetName: 44031 UNITE

Hit Count: updated at: Thu, 21 Feb 2019 12:40:35 GMT